Flag for Antigua and Barbuda Weather past 2 weeks in Saint John's, Antigua and Barbuda

Now
77 °F

Passing clouds.


Feels Like: 79 °F
Forecast: 75 / 82 °F
Wind: 9 mph from East

Location: Vc Bird International Antigua Airport


UV Index: 10 (Very high)

Visibility: N/A


Pressure: 30.04 "Hg

Humidity: 79%

Dew point: 70 °F

Location of Saint John'sLocation

Historic Weather in Saint John's

°F

Saint John's temperature yesterday

Maximum temperature yesterday: 82 °F (at 9:00 AM)
Minimum temperature yesterday: 77 °F (at 12:00 AM)
Average temperature yesterday: 79 °F

Past Weeks' High & Low Weather Summary

 TemperatureHumidityPressure
High84 °F (Apr 8, 12:00 PM)94% (Apr 13, 3:00 AM)30.12 "Hg (Apr 13, 3:00 AM)
Low70 °F (Apr 13, 3:00 AM)51% (Apr 17, 6:00 PM)29.89 "Hg (Apr 15, 3:00 PM)
Average79 °F72%30.02 "Hg
* Reported Midnight between Apr 5 and Apr 6 — Midnight between Apr 20 and Apr 21, Saint John's, Weather by CustomWeather, © 2014

Note: Actual official high and low records may vary slightly from our data, if they occured in-between our weather recording intervals... More about our weather records

Advertising

Historic Weather Conditions — Data for Previous 24 hours

 ConditionsComfort  
Time TempWeatherWind HumidityBarometerVisibility
12:00 AM
Apr 21
77 °FPassing clouds.9 mph79%30.07 "HgN/A
11:00 PM
Apr 20
77 °FPassing clouds.13 mph79%30.07 "HgN/A
10:00 PM79 °FPassing clouds.12 mph74%30.07 "HgN/A
9:00 PM77 °FPassing clouds.9 mph79%30.07 "HgN/A
8:00 PM79 °FPassing clouds.9 mph74%30.07 "HgN/A
7:00 PM79 °FPassing clouds.9 mph74%30.04 "HgN/A
6:00 PM79 °FScattered clouds.9 mph74%30.04 "HgN/A
5:00 PM81 °FScattered clouds.12 mph70%30.01 "HgN/A
4:00 PM81 °FScattered clouds.12 mph70%30.01 "HgN/A
3:00 PM81 °FScattered clouds.14 mph70%30.04 "HgN/A
2:00 PM82 °FScattered clouds.14 mph66%30.04 "HgN/A
1:00 PM82 °FScattered clouds.15 mph66%30.07 "HgN/A
12:00 PM82 °FScattered clouds.14 mph66%30.09 "HgN/A
11:00 AM82 °FScattered clouds.14 mph66%30.09 "HgN/A
10:00 AM82 °FPassing clouds.14 mph62%30.09 "HgN/A
9:00 AM82 °FPassing clouds.12 mph62%30.09 "HgN/A
8:00 AM79 °FPassing clouds.14 mph70%30.09 "HgN/A
7:00 AM79 °FPassing clouds.10 mph70%30.07 "HgN/A
6:00 AM77 °FPassing clouds.15 mph74%30.07 "HgN/A
5:00 AM77 °FPassing clouds.16 mph74%30.07 "HgN/A
4:00 AM77 °FPassing clouds.16 mph74%30.04 "HgN/A
3:00 AM77 °FPassing clouds.12 mph74%30.04 "HgN/A
2:00 AM77 °FPassing clouds.10 mph74%30.04 "HgN/A
1:00 AM77 °FPassing clouds.12 mph74%30.04 "HgN/A
Weather by CustomWeather, © 2014

See weather overview